When you browse on this site, cookies collect data to enhance your experience and personalize the content and advertising you see.
Visit our Privacy Policy to learn more. By continuing to use the site, you agree to this use of cookies and data.
  • en France
  • Liste des pays
  • À 7 jours
  • Température de l'eau
  • Carte météo
  • Widgets météo
  • user-avatar
    Se connecter

    Météo par heure à Grantham

    Ce jour, 26 Mai, Mardi

    Heure Température Précipitation Vent Pression Humidité
    00:00 +12°C° 0 mm 2 m/s 765 mmHg 85%
    01:00 +12°C° 0 mm 2 m/s 765 mmHg 83%
    02:00 +10°C° 0 mm 2 m/s 765 mmHg 80%
    03:00 +10°C° 0 mm 2 m/s 765 mmHg 77%
    04:00 +12°C° 0 mm 2 m/s 765 mmHg 77%
    05:00 +12°C° 0 mm 2 m/s 766 mmHg 76%
    06:00 +13°C° 0 mm 2 m/s 766 mmHg 80%
    07:00 +15°C° 0 mm 2 m/s 766 mmHg 75%
    08:00 +16°C° 0 mm 2 m/s 766 mmHg 69%
    09:00 +18°C° 0 mm 1 m/s 766 mmHg 63%
    10:00 +18°C° 0 mm 2 m/s 766 mmHg 64%
    11:00 +19°C° 0 mm 2 m/s 766 mmHg 64%
    12:00 +20°C° 0 mm 2 m/s 767 mmHg 65%
    13:00 +20°C° 0 mm 2 m/s 767 mmHg 66%
    14:00 +21°C° 0 mm 1 m/s 766 mmHg 67%
    15:00 +21°C° 0 mm 1 m/s 766 mmHg 68%
    16:00 +20°C° 0.1 mm 2 m/s 766 mmHg 72%
    17:00 +20°C° 0.1 mm 2 m/s 766 mmHg 75%
    18:00 +20°C° 0.1 mm 2 m/s 766 mmHg 78%
    19:00 +18°C° 0 mm 2 m/s 766 mmHg 80%
    20:00 +16°C° 0 mm 2 m/s 767 mmHg 81%
    21:00 +15°C° 0 mm 2 m/s 767 mmHg 82%
    22:00 +14°C° 0 mm 2 m/s 767 mmHg 81%
    23:00 +12°C° 0 mm 2 m/s 767 mmHg 80%

    Demain, 27 Mai, Mercredi

    Heure Température Précipitation Vent Pression Humidité
    00:00 +10°C° 0 mm 2 m/s 767 mmHg 79%
    01:00 +10°C° 0 mm 2 m/s 767 mmHg 78%
    02:00 +9°C° 0 mm 2 m/s 767 mmHg 76%
    03:00 +9°C° 0 mm 2 m/s 767 mmHg 75%
    04:00 +9°C° 0 mm 2 m/s 767 mmHg 76%
    05:00 +10°C° 0 mm 2 m/s 767 mmHg 78%
    06:00 +10°C° 0 mm 2 m/s 767 mmHg 79%
    07:00 +13°C° 0 mm 2 m/s 767 mmHg 78%
    08:00 +15°C° 0 mm 2 m/s 767 mmHg 77%
    09:00 +17°C° 0 mm 2 m/s 767 mmHg 76%
    10:00 +18°C° 0 mm 2 m/s 767 mmHg 73%
    11:00 +18°C° 0 mm 2 m/s 767 mmHg 70%
    12:00 +19°C° 0 mm 2 m/s 767 mmHg 67%
    13:00 +19°C° 0 mm 2 m/s 767 mmHg 67%
    14:00 +19°C° 0 mm 2 m/s 767 mmHg 67%
    15:00 +19°C° 0 mm 3 m/s 767 mmHg 67%
    16:00 +19°C° 0 mm 3 m/s 767 mmHg 70%
    17:00 +18°C° 0 mm 3 m/s 766 mmHg 74%
    18:00 +17°C° 0 mm 3 m/s 766 mmHg 78%
    19:00 +14°C° 0 mm 3 m/s 767 mmHg 82%
    20:00 +13°C° 0 mm 3 m/s 767 mmHg 86%
    21:00 +12°C° 0 mm 2 m/s 767 mmHg 90%
    22:00 +10°C° 0 mm 2 m/s 767 mmHg 91%
    23:00 +10°C° 0 mm 2 m/s 767 mmHg 92%

    Après-demain, 28 Mai, Jeudi

    Heure Température Précipitation Vent Pression Humidité
    00:00 +11°C° 0 mm 1 m/s 767 mmHg 92%
    01:00 +10°C° 0 mm 1 m/s 767 mmHg 92%
    02:00 +10°C° 0 mm 1 m/s 766 mmHg 92%
    03:00 +10°C° 0 mm 1 m/s 766 mmHg 92%
    04:00 +10°C° 0 mm 1 m/s 766 mmHg 90%
    05:00 +11°C° 0 mm 1 m/s 766 mmHg 87%
    06:00 +12°C° 0 mm 1 m/s 766 mmHg 85%
    07:00 +14°C° 0 mm 2 m/s 766 mmHg 78%
    08:00 +15°C° 0 mm 2 m/s 766 mmHg 72%
    09:00 +16°C° 0 mm 2 m/s 766 mmHg 66%
    10:00 +17°C° 0 mm 2 m/s 766 mmHg 64%
    11:00 +18°C° 0 mm 2 m/s 765 mmHg 63%
    12:00 +19°C° 0 mm 2 m/s 765 mmHg 62%
    13:00 +19°C° 0 mm 2 m/s 765 mmHg 63%
    14:00 +20°C° 0 mm 2 m/s 764 mmHg 63%
    15:00 +20°C° 0 mm 2 m/s 764 mmHg 63%
    16:00 +19°C° 0 mm 2 m/s 764 mmHg 67%
    17:00 +19°C° 0 mm 3 m/s 763 mmHg 71%
    18:00 +18°C° 0 mm 3 m/s 763 mmHg 75%
    19:00 +16°C° 0 mm 3 m/s 763 mmHg 79%
    20:00 +13°C° 0 mm 3 m/s 763 mmHg 83%
    21:00 +13°C° 0 mm 2 m/s 763 mmHg 87%
    22:00 +12°C° 0 mm 2 m/s 763 mmHg 86%
    23:00 +10°C° 0 mm 2 m/s 763 mmHg 85%

    29 Mai, Vendredi

    Heure Température Précipitation Vent Pression Humidité
    00:00 +10°C° 0 mm 2 m/s 763 mmHg 83%
    01:00 +9°C° 0 mm 2 m/s 762 mmHg 81%
    02:00 +9°C° 0 mm 2 m/s 762 mmHg 78%
    03:00 +8°C° 0 mm 2 m/s 762 mmHg 75%
    04:00 +10°C° 0 mm 1 m/s 762 mmHg 74%
    05:00 +11°C° 0 mm 1 m/s 762 mmHg 73%
    06:00 +11°C° 0 mm 1 m/s 762 mmHg 72%
    07:00 +13°C° 0 mm 2 m/s 762 mmHg 68%
    08:00 +15°C° 0 mm 2 m/s 761 mmHg 65%
    09:00 +17°C° 0 mm 2 m/s 761 mmHg 61%
    10:00 +18°C° 0 mm 3 m/s 761 mmHg 60%
    11:00 +19°C° 0 mm 3 m/s 761 mmHg 58%
    12:00 +20°C° 0 mm 3 m/s 761 mmHg 57%
    13:00 +20°C° 0 mm 3 m/s 760 mmHg 58%
    14:00 +21°C° 0 mm 3 m/s 760 mmHg 60%
    15:00 +21°C° 0 mm 3 m/s 760 mmHg 61%
    16:00 +21°C° 0 mm 3 m/s 760 mmHg 66%
    17:00 +20°C° 0 mm 3 m/s 759 mmHg 71%
    18:00 +19°C° 0 mm 3 m/s 759 mmHg 75%
    19:00 +18°C° 0 mm 3 m/s 759 mmHg 79%
    20:00 +16°C° 0 mm 3 m/s 759 mmHg 84%
    21:00 +13°C° 0 mm 3 m/s 759 mmHg 88%
    22:00 +13°C° 0 mm 2 m/s 759 mmHg 88%
    23:00 +12°C° 0 mm 2 m/s 759 mmHg 87%

    30 Mai, Samedi

    Heure Température Précipitation Vent Pression Humidité
    00:00 +10°C° 0 mm 2 m/s 759 mmHg 87%
    01:00 +10°C° 0 mm 2 m/s 759 mmHg 85%
    02:00 +9°C° 0 mm 2 m/s 759 mmHg 84%
    03:00 +9°C° 0 mm 2 m/s 759 mmHg 83%
    04:00 +10°C° 0 mm 1 m/s 759 mmHg 81%
    05:00 +11°C° 0 mm 1 m/s 759 mmHg 80%
    06:00 +12°C° 0 mm 1 m/s 759 mmHg 79%
    07:00 +14°C° 0 mm 1 m/s 759 mmHg 76%
    08:00 +15°C° 0 mm 2 m/s 759 mmHg 73%
    09:00 +17°C° 0 mm 2 m/s 759 mmHg 70%
    10:00 +18°C° 0 mm 2 m/s 759 mmHg 68%
    11:00 +19°C° 0 mm 3 m/s 759 mmHg 66%
    12:00 +20°C° 0 mm 3 m/s 759 mmHg 65%
    13:00 +20°C° 0 mm 3 m/s 759 mmHg 66%
    14:00 +20°C° 0 mm 3 m/s 758 mmHg 67%
    15:00 +20°C° 0 mm 3 m/s 758 mmHg 68%
    16:00 +19°C° 0 mm 3 m/s 758 mmHg 72%
    17:00 +18°C° 0 mm 3 m/s 758 mmHg 75%
    18:00 +17°C° 0 mm 3 m/s 758 mmHg 79%
    19:00 +16°C° 0 mm 3 m/s 758 mmHg 82%
    20:00 +13°C° 0 mm 3 m/s 758 mmHg 86%
    21:00 +11°C° 0 mm 3 m/s 758 mmHg 89%
    22:00 +12°C° 0 mm 2 m/s 758 mmHg 91%
    23:00 +10°C° 0 mm 2 m/s 758 mmHg 92%

    31 Mai, Dimanche

    Heure Température Précipitation Vent Pression Humidité
    00:00 +10°C° 0 mm 2 m/s 758 mmHg 93%
    01:00 +9°C° 0 mm 2 m/s 758 mmHg 93%
    02:00 +10°C° 0 mm 1 m/s 757 mmHg 93%
    03:00 +9°C° 0 mm 1 m/s 757 mmHg 93%
    04:00 +10°C° 0 mm 1 m/s 757 mmHg 90%
    05:00 +11°C° 0 mm 1 m/s 757 mmHg 88%
    06:00 +12°C° 0 mm 1 m/s 757 mmHg 86%
    07:00 +13°C° 0 mm 1 m/s 757 mmHg 81%
    08:00 +15°C° 0 mm 2 m/s 757 mmHg 76%
    09:00 +16°C° 0 mm 2 m/s 757 mmHg 71%
    10:00 +17°C° 0 mm 2 m/s 757 mmHg 69%
    11:00 +19°C° 0 mm 2 m/s 757 mmHg 67%
    12:00 +20°C° 0 mm 2 m/s 757 mmHg 64%
    13:00 +20°C° 0.1 mm 3 m/s 757 mmHg 67%
    14:00 +20°C° 0.1 mm 3 m/s 756 mmHg 69%
    15:00 +20°C° 0.1 mm 3 m/s 756 mmHg 71%
    16:00 +19°C° 0.1 mm 3 m/s 756 mmHg 75%
    17:00 +18°C° 0.1 mm 3 m/s 756 mmHg 78%
    18:00 +18°C° 0.1 mm 3 m/s 755 mmHg 81%
    19:00 +17°C° 0 mm 3 m/s 755 mmHg 84%
    20:00 +14°C° 0 mm 3 m/s 756 mmHg 86%
    21:00 +13°C° 0 mm 3 m/s 756 mmHg 88%
    22:00 +13°C° 0 mm 3 m/s 755 mmHg 87%
    23:00 +13°C° 0 mm 2 m/s 755 mmHg 87%
    Voir plus